TimeEST,TemperatureF,Dew PointF,Humidity,Sea Level PressureIn,VisibilityMPH,Wind Direction,Wind SpeedMPH,Gust SpeedMPH,PrecipitationIn,Events,Conditions,WindDirDegrees,DateUTC
12:53 AM,36.0,30.9,82,30.09,10.0,Calm,Calm,-,N/A,,Clear,0,2011-11-13 05:53:00
1:53 AM,33.1,30.0,89,30.10,10.0,Calm,Calm,-,N/A,,Clear,0,2011-11-13 06:53:00
2:53 AM,33.1,28.9,85,30.09,10.0,Calm,Calm,-,N/A,,Clear,0,2011-11-13 07:53:00
3:53 AM,33.1,30.0,89,30.10,10.0,Calm,Calm,-,N/A,,Clear,0,2011-11-13 08:53:00
4:53 AM,32.0,28.9,88,30.11,10.0,Calm,Calm,-,N/A,,Clear,0,2011-11-13 09:53:00
5:53 AM,30.0,28.0,92,30.10,9.0,Calm,Calm,-,N/A,,Clear,0,2011-11-13 10:53:00
6:53 AM,30.9,28.0,89,30.11,9.0,Calm,Calm,-,N/A,,Clear,0,2011-11-13 11:53:00
7:53 AM,32.0,30.0,92,30.12,9.0,Calm,Calm,-,N/A,,Clear,0,2011-11-13 12:53:00
8:53 AM,39.9,35.1,83,30.10,10.0,Calm,Calm,-,N/A,,Clear,0,2011-11-13 13:53:00
9:53 AM,46.0,37.9,73,30.09,10.0,Calm,Calm,-,N/A,,Clear,0,2011-11-13 14:53:00
10:53 AM,53.1,37.9,57,30.06,10.0,SW,4.6,-,N/A,,Clear,230,2011-11-13 15:53:00
11:53 AM,55.9,36.0,47,30.03,10.0,SSW,9.2,16.1,N/A,,Clear,200,2011-11-13 16:53:00
12:53 PM,57.9,36.0,44,29.99,10.0,Variable,5.8,16.1,N/A,,Clear,0,2011-11-13 17:53:00
1:53 PM,57.9,36.0,44,29.97,10.0,Variable,4.6,16.1,N/A,,Clear,0,2011-11-13 18:53:00
2:53 PM,57.0,36.0,45,29.97,10.0,South,10.4,17.3,N/A,,Clear,180,2011-11-13 19:53:00
3:53 PM,55.9,36.0,47,29.96,10.0,South,3.5,-,N/A,,Clear,190,2011-11-13 20:53:00
4:53 PM,54.0,37.0,53,29.94,10.0,Calm,Calm,-,N/A,,Clear,0,2011-11-13 21:53:00
5:53 PM,52.0,37.9,59,29.94,10.0,South,3.5,-,N/A,,Clear,180,2011-11-13 22:53:00
6:53 PM,46.0,39.0,76,29.96,10.0,Calm,Calm,-,N/A,,Clear,0,2011-11-13 23:53:00
7:53 PM,46.0,37.9,73,29.95,10.0,Calm,Calm,-,N/A,,Clear,0,2011-11-14 00:53:00
8:53 PM,45.0,37.9,76,29.93,10.0,Calm,Calm,-,N/A,,Clear,0,2011-11-14 01:53:00
9:53 PM,44.1,37.9,79,29.93,10.0,Calm,Calm,-,N/A,,Clear,0,2011-11-14 02:53:00
10:53 PM,48.0,39.9,74,29.93,10.0,Calm,Calm,-,N/A,,Overcast,0,2011-11-14 03:53:00
11:53 PM,48.0,41.0,77,29.93,10.0,Calm,Calm,-,N/A,,Overcast,0,2011-11-14 04:53:00